Regional Weather Roundup
Issued by NWS

Home | Current Version | Previous Version | Text Only | Print | Product List | Glossary Off
Versions: 1 2 3 4 5 6 7 8 9 10 11 12 13 14 15 16 17 18 19 20 21 22 23 24 25 26 27

000
ASUS45 KBOU 221107
RWRCO

WEATHER ROUNDUP FOR COLORADO
NATIONAL WEATHER SERVICE DENVER/BOULDER CO
500 AM MDT FRI JUL 22 2016

NOTE: "FAIR" INDICATES FEW OR NO CLOUDS BELOW 12000 FEET WITH NO
SIGNIFICANT WEATHER AND/OR OBSTRUCTIONS TO VISIBILITY.

COZ001>005-013-030-031-221200-
...NORTHWEST COLORADO...

CITY           SKY/WX    TMP DP  RH WIND       PRES   REMARKS
CRAIG          FAIR      49  45  86 CALM      30.35S
HAYDEN         FAIR      55  45  67 E8        30.37S
MEEKER         FAIR      52  49  89 E3        30.37R
MOUNT WERNER   NOT AVBL
STEAMBOAT SPGS FAIR      49  46  90 CALM      30.40S
WALDEN         FAIR      43  39  87 CALM      30.50S
$$

COZ006>008-011-221200-
...WEST CENTRAL VALLEYS...

CITY           SKY/WX    TMP DP  RH WIND       PRES   REMARKS
GRAND JUNCTION FAIR      67  52  58 E10       30.23S
MONTROSE       FAIR      61  54  77 SE5       30.33S
EAGLE          FAIR      54  52  94 CALM      30.44S
RIFLE          FAIR      59  51  75 S3        30.32R
DELTA          FAIR      65  54  67 E7        30.29S
NUCLA          FAIR      61  54  77 SE7       30.37S
$$

COZ017>023-064>068-221200-
...SOUTHWEST COLORADO...

CITY           SKY/WX    TMP DP  RH WIND       PRES   REMARKS
DURANGO        FAIR      59  53  80 N3        30.38R
CORTEZ         FAIR      61  54  77 CALM      30.33R
PAGOSA SPRINGS FAIR      58  49  71 CALM      30.46R
TELLURIDE      FAIR      55  50  81 SE6       30.57S
WOLF CREEK PAS FAIR      50  37  62 SW5       30.79S
$$

COZ009-010-012-014-032>034-037-058>063-221200-
...CENTRAL COLORADO...

CITY           SKY/WX    TMP DP  RH WIND       PRES   REMARKS
ASPEN          FAIR      50  48  93 CALM      30.46S
BUENA VISTA    FAIR      52  49  90 NW3       30.50S
COPPER MTN     FAIR      54  37  54 SW7       30.77F
BERTHOUD PASS  FAIR      45  32  61 NW8       30.79F
COTTONWOOD PAS FAIR      59  43  55 E5        30.62S
GUNNISON       FAIR      54  48  82 CALM      30.51S
KREMMLING      FOG       52  50  93 CALM      30.49S VSB 1/2
LEADVILLE      FAIR      42  40  92 N5        30.62S
MONARCH PASS   FAIR      46  41  81 SW15      30.87S
SALIDA         FAIR      58  52  80 NW9       30.54S
SUNLIGHT       FAIR      52  46  82 CALM      30.70S
WILKERSON PASS FAIR      50  41  71 SW7       30.74S
$$

COZ069>075-221200-
...SAN LUIS VALLEY/SANGRE DE CRISTO MOUNTAINS...

CITY           SKY/WX    TMP DP  RH WIND       PRES   REMARKS
ALAMOSA        FAIR      58  50  75 N3        30.44F
LA VETA PASS   FAIR      54  43  66 S5        30.63S
SAGUACHE       FAIR      55  46  71 N3        30.48S
$$

COZ035-036-038>040-221200-
...NORTHERN COLORADO FRONT RANGE...

CITY           SKY/WX    TMP DP  RH WIND       PRES   REMARKS
DENVER INTL AP MOCLDY    70  50  49 S8        30.22S
DMNS CITY PARK   N/A     70  50  49 SW5       30.21S
AURORA         MOCLDY    68  50  52 S10       30.24F
FRONT RANGE AP NOT AVBL
ERIE MUNI ARPT FAIR      69  53  55 CALM      30.19F
BOULDER MUN AP FAIR      70  54  56 CALM      30.20S
CENTENNIAL     FAIR      72  46  39 S12       30.26F
BROOMFIELD     FAIR      70  48  46 NE3       30.23F
LONGMONT       FAIR      70  54  56 CALM      30.20F
$$

COZ041-046-047-076>085-087-088-221200-
...PIKES PEAK/PALMER DIVIDE AND SOUTHERN FOOTHILLS...

CITY           SKY/WX    TMP DP  RH WIND       PRES   REMARKS
COLO. SPRINGS  FAIR      66  50  56 N9        30.30F
A. F. ACADEMY  FAIR      58  47  67 N9        30.32F
SCHRIEVER AFB  NOT AVBL
ELLICOTT       FAIR     N/A N/A N/A CALM      30.27F
FALCON         FAIR      64  48  57 NW6       30.35F
FORT CARSON    FAIR      66  49  54 N5        30.25F
LIMON          FAIR      59  49  69 N6        30.22F
MONUMENT HILL  FAIR      61  46  59 SW3       30.37F
TRINIDAD       NOT AVBL
$$

COZ042>045-048>051-090-091-221200-
...NORTHEAST COLORADO...

CITY           SKY/WX    TMP DP  RH WIND       PRES   REMARKS
GREELEY ARPT   FAIR      68  59  73 CALM      30.18F
AKRON          FAIR      70  54  56 W10       30.16S
BURLINGTON     FAIR      73  57  57 CALM      30.11R
WRAY           FAIR      64  59  82 W7        30.09S
STERLING       FAIR      64  61  88 S3        30.10S
HOLYOKE        FAIR      70  63  78 W5        30.09S
FORT MORGAN    FAIR      69  55  62 SW6       30.16F
$$

COZ086-089-092>099-221200-
...SOUTHEAST COLORADO...

CITY           SKY/WX    TMP DP  RH WIND       PRES   REMARKS
PUEBLO         FAIR      75  51  43 NW5       30.17S
LA JUNTA       FAIR      73  52  47 W8        30.14R
LAMAR          FAIR      66  57  72 SW8       30.09R
SPRINGFIELD      N/A     76  53  44 S12       30.17R
$$




USA.gov is the U.S. government's official web portal to all federal, state and local government web resources and services.